| time (UTC) | temp F | wind direction | speed MPH | gust MPH | rain 1hr in | rain 24hr in | rain mn in | humidity % | barometer mb |
| 20260905105005 | 63 | 264 | 7.0 | 21.0 | 0.00 | 0.10 | 0.00 | 74 | 1002.9 |
| 20260905104503 | 63 | 254 | 7.0 | 21.0 | 0.00 | 0.10 | 0.00 | 75 | 1002.9 |
| 20260905104005 | 63 | 272 | 7.0 | 19.0 | 0.00 | 0.10 | 0.00 | 77 | 1002.9 |
| 20260905103503 | 63 | 265 | 6.0 | 19.0 | 0.00 | 0.10 | 0.00 | 76 | 1002.9 |
| 20260905102504 | 63 | 267 | 7.0 | 16.0 | 0.00 | 0.10 | 0.00 | 78 | 1002.9 |
| 20260905102004 | 62 | 268 | 7.0 | 18.0 | 0.00 | 0.10 | 0.00 | 79 | 1002.9 |
| 20260905101503 | 62 | 265 | 7.0 | 18.0 | 0.00 | 0.10 | 0.00 | 77 | 1002.9 |
| 20260905101005 | 62 | 262 | 6.0 | 15.0 | 0.00 | 0.10 | 0.00 | 77 | 1002.9 |
| 20260905100503 | 62 | 250 | 6.0 | 12.0 | 0.00 | 0.10 | 0.00 | 78 | 1002.9 |
| 20260905100005 | 62 | 253 | 7.0 | 12.0 | 0.00 | 0.10 | 0.00 | 79 | 1002.9 |
| 20260905095504 | 62 | 282 | 7.0 | 14.0 | 0.00 | 0.10 | 0.00 | 80 | 1002.9 |
| 20260905095005 | 62 | 292 | 7.0 | 14.0 | 0.00 | 0.10 | 0.00 | 78 | 1002.9 |
| 20260905094503 | 62 | 271 | 8.0 | 16.0 | 0.00 | 0.10 | 0.00 | 77 | 1002.9 |
| 20260905094005 | 62 | 263 | 7.0 | 16.0 | 0.00 | 0.10 | 0.00 | 77 | 1002.9 |
| 20260905093504 | 62 | 257 | 5.0 | 16.0 | 0.00 | 0.10 | 0.00 | 78 | 1002.9 |
| 20260905093004 | 63 | 250 | 5.0 | 16.0 | 0.00 | 0.10 | 0.00 | 77 | 1002.9 |
| 20260905092503 | 62 | 264 | 6.0 | 12.0 | 0.00 | 0.10 | 0.00 | 81 | 1001.9 |
| 20260905092005 | 62 | 263 | 7.0 | 16.0 | 0.00 | 0.10 | 0.00 | 79 | 1001.9 |
| 20260905091503 | 62 | 266 | 7.0 | 16.0 | 0.00 | 0.10 | 0.00 | 80 | 1001.9 |
| 20260905091005 | 62 | 281 | 6.0 | 15.0 | 0.00 | 0.10 | 0.00 | 79 | 1001.9 |
| 20260905090503 | 61 | 285 | 8.0 | 15.0 | 0.00 | 0.10 | 0.00 | 80 | 1001.9 |
| 20260905090004 | 61 | 278 | 10.0 | 18.0 | 0.00 | 0.10 | 0.00 | 79 | 1001.9 |
| 20260905085503 | 60 | 260 | 11.0 | 21.0 | 0.00 | 0.10 | 0.00 | 81 | 1000.9 |
| 20260905084503 | 60 | 267 | 11.0 | 21.0 | 0.00 | 0.10 | 0.00 | 81 | 1000.9 |
| 20260905084004 | 60 | 268 | 10.0 | 21.0 | 0.00 | 0.10 | 0.00 | 84 | 1000.9 |
| 20260905083005 | 60 | 274 | 9.0 | 29.0 | 0.00 | 0.10 | 0.00 | 85 | 1000.9 |
| 20260905082503 | 60 | 277 | 9.0 | 29.0 | 0.00 | 0.10 | 0.00 | 83 | 1001.9 |
| 20260905082005 | 61 | 280 | 10.0 | 22.0 | 0.00 | 0.10 | 0.00 | 82 | 1001.9 |
| 20260905081005 | 60 | 276 | 9.0 | 23.0 | 0.00 | 0.10 | 0.00 | 81 | 1001.9 |
| 20260905080503 | 60 | 270 | 10.0 | 23.0 | 0.00 | 0.10 | 0.00 | 81 | 1001.9 |
| 20260905080007 | 60 | 273 | 12.0 | 24.0 | 0.00 | 0.10 | 0.00 | 82 | 1001.9 |
| 20260905075504 | 60 | 277 | 11.0 | 24.0 | 0.00 | 0.10 | 0.00 | 81 | 1001.9 |
| 20260905075005 | 60 | 273 | 8.0 | 18.0 | 0.00 | 0.10 | 0.00 | 83 | 1001.9 |
| 20260905074503 | 60 | 263 | 10.0 | 19.0 | 0.00 | 0.10 | 0.00 | 83 | 1001.9 |
| 20260905074004 | 60 | 269 | 10.0 | 19.0 | 0.00 | 0.10 | 0.00 | 83 | 1001.9 |
| 20260905073503 | 60 | 268 | 10.0 | 22.0 | 0.00 | 0.10 | 0.00 | 85 | 1001.9 |
| 20260905073004 | 60 | 266 | 11.0 | 22.0 | 0.00 | 0.10 | 0.00 | 84 | 1001.9 |
| 20260905072503 | 59 | 270 | 10.0 | 22.0 | 0.00 | 0.10 | 0.00 | 84 | 1001.9 |
| 20260905072005 | 59 | 264 | 8.0 | 21.0 | 0.00 | 0.10 | 0.00 | 85 | 1001.9 |
| 20260905071503 | 59 | 270 | 6.0 | 15.0 | 0.00 | 0.10 | 0.00 | 86 | 1001.9 |
| 20260905071004 | 59 | 278 | 8.0 | 21.0 | 0.00 | 0.10 | 0.00 | 85 | 1000.9 |
| 20260905070503 | 59 | 272 | 9.0 | 21.0 | 0.00 | 0.10 | 0.00 | 85 | 1000.9 |
| 20260905070005 | 59 | 270 | 9.0 | 21.0 | 0.00 | 0.10 | 0.00 | 86 | 1000.9 |
| 20260905065503 | 59 | 262 | 11.0 | 24.0 | 0.00 | 0.10 | 0.00 | 86 | 1000.9 |
| 20260905065004 | 58 | 262 | 13.0 | 24.0 | 0.00 | 0.10 | 0.00 | 85 | 1000.9 |
| 20260905064005 | 58 | 270 | 11.0 | 21.0 | 0.00 | 0.10 | 0.00 | 86 | 999.9 |
| 20260905063503 | 58 | 266 | 11.0 | 18.0 | 0.00 | 0.10 | 0.00 | 87 | 999.9 |
| 20260905063004 | 58 | 267 | 11.0 | 21.0 | 0.00 | 0.10 | 0.00 | 88 | 999.9 |
| 20260905062004 | 58 | 277 | 11.0 | 19.0 | 0.00 | 0.10 | 0.00 | 89 | 999.9 |
| 20260905061503 | 58 | 259 | 12.0 | 24.0 | 0.00 | 0.10 | 0.00 | 90 | 999.9 |
| 20260905061005 | 58 | 248 | 12.0 | 24.0 | 0.00 | 0.10 | 0.00 | 90 | 998.9 |
| 20260905060503 | 58 | 263 | 10.0 | 18.0 | 0.00 | 0.10 | 0.00 | 92 | 998.9 |
| 20260905060004 | 57 | 278 | 11.0 | 21.0 | 0.00 | 0.10 | 0.00 | 92 | 998.9 |
| 20260905055005 | 57 | 264 | 11.0 | 20.0 | 0.00 | 0.10 | 0.00 | 93 | 998.9 |
| 20260905054004 | 57 | 287 | 12.0 | 25.0 | 0.00 | 0.10 | 0.00 | 93 | 999.9 |
| 20260905053503 | 57 | 280 | 11.0 | 25.0 | 0.00 | 0.10 | 0.00 | 92 | 999.9 |
| 20260905053004 | 58 | 265 | 9.0 | 19.0 | 0.00 | 0.10 | 0.00 | 90 | 999.9 |
| 20260905052503 | 58 | 276 | 10.0 | 21.0 | 0.00 | 0.10 | 0.00 | 89 | 999.9 |
| 20260905052005 | 58 | 281 | 11.0 | 23.0 | 0.00 | 0.10 | 0.00 | 89 | 999.9 |
| 20260905051503 | 57 | 271 | 11.0 | 23.0 | 0.00 | 0.10 | 0.00 | 90 | 999.9 |
| 20260905051005 | 57 | 270 | 11.0 | 18.0 | 0.00 | 0.10 | 0.00 | 90 | 999.9 |
| 20260905050503 | 57 | 277 | 12.0 | 25.0 | 0.00 | 0.10 | 0.00 | 89 | 999.9 |
| 20260905050005 | 57 | 285 | 13.0 | 25.0 | 0.00 | 0.10 | 0.00 | 90 | 999.9 |
| 20260905045503 | 57 | 279 | 12.0 | 21.0 | 0.00 | 0.10 | 0.00 | 91 | 999.9 |
| 20260905045005 | 57 | 267 | 12.0 | 21.0 | 0.00 | 0.10 | 0.00 | 91 | 999.9 |
| 20260905044503 | 57 | 264 | 11.0 | 20.0 | 0.00 | 0.10 | 0.00 | 91 | 999.9 |
| 20260905044005 | 57 | 275 | 10.0 | 24.0 | 0.00 | 0.10 | 0.00 | 91 | 999.9 |
| 20260905043503 | 57 | 268 | 9.0 | 24.0 | 0.00 | 0.10 | 0.00 | 92 | 999.9 |
| 20260905043005 | 57 | 256 | 11.0 | 25.0 | 0.00 | 0.10 | 0.00 | 92 | 999.9 |
| 20260905042503 | 57 | 266 | 11.0 | 25.0 | 0.00 | 0.10 | 0.00 | 93 | 998.9 |
| 20260905042004 | 57 | 269 | 12.0 | 21.0 | 0.00 | 0.10 | 0.00 | 93 | 998.9 |
| 20260905041004 | 58 | 272 | 9.0 | 18.0 | 0.00 | 0.10 | 0.00 | 90 | 998.9 |
| 20260905040503 | 58 | 276 | 9.0 | 21.0 | 0.00 | 0.10 | 0.00 | 89 | 998.9 |
| 20260905040005 | 58 | 271 | 10.0 | 21.0 | 0.00 | 0.10 | 0.00 | 88 | 998.9 |
| 20260905035503 | 58 | 272 | 12.0 | 19.0 | 0.00 | 0.10 | 0.00 | 88 | 999.9 |
| 20260905035005 | 58 | 273 | 13.0 | 21.0 | 0.00 | 0.10 | 0.00 | 88 | 999.9 |
| 20260905034005 | 58 | 271 | 12.0 | 20.0 | 0.00 | 0.10 | 0.00 | 89 | 998.9 |
| 20260905033503 | 58 | 278 | 12.0 | 19.0 | 0.00 | 0.10 | 0.00 | 89 | 998.9 |
| 20260905033005 | 58 | 277 | 13.0 | 20.0 | 0.00 | 0.10 | 0.00 | 89 | 998.9 |
| 20260905032503 | 58 | 271 | 12.0 | 20.0 | 0.00 | 0.10 | 0.00 | 89 | 998.9 |
| 20260905032004 | 58 | 270 | 11.0 | 19.0 | 0.00 | 0.10 | 0.00 | 89 | 998.9 |
| 20260905031504 | 58 | 270 | 11.0 | 19.0 | 0.00 | 0.10 | 0.00 | 89 | 998.9 |
| 20260905031004 | 58 | 270 | 11.0 | 24.0 | 0.00 | 0.10 | 0.00 | 90 | 998.9 |
| 20260905025503 | 57 | 263 | 13.0 | 22.0 | 0.00 | 0.10 | 0.00 | 90 | 998.9 |
| 20260905024503 | 57 | 274 | 10.0 | 23.0 | 0.00 | 0.10 | 0.00 | 92 | 998.9 |
| 20260905024004 | 57 | 271 | 12.0 | 23.0 | 0.00 | 0.10 | 0.00 | 92 | 997.9 |
| 20260905023503 | 57 | 278 | 12.0 | 20.0 | 0.00 | 0.10 | 0.00 | 92 | 997.9 |
| 20260905023005 | 57 | 280 | 9.0 | 20.0 | 0.00 | 0.10 | 0.00 | 92 | 997.9 |
| 20260905022503 | 57 | 279 | 8.0 | 15.0 | 0.00 | 0.10 | 0.00 | 92 | 997.9 |
| 20260905022005 | 57 | 286 | 9.0 | 18.0 | 0.00 | 0.10 | 0.00 | 92 | 997.9 |
| 20260905021503 | 57 | 282 | 11.0 | 21.0 | 0.00 | 0.10 | 0.00 | 92 | 997.9 |
| 20260905021005 | 57 | 276 | 10.0 | 21.0 | 0.00 | 0.10 | 0.00 | 91 | 996.9 |
| 20260905020503 | 58 | 277 | 10.0 | 18.0 | 0.00 | 0.10 | 0.00 | 92 | 996.9 |
| 20260905020005 | 57 | 272 | 10.0 | 17.0 | 0.00 | 0.10 | 0.00 | 91 | 996.9 |
| 20260905015503 | 57 | 269 | 11.0 | 17.0 | 0.00 | 0.10 | 0.00 | 91 | 996.9 |
| 20260905014503 | 57 | 278 | 12.0 | 19.0 | 0.00 | 0.10 | 0.00 | 92 | 996.9 |
| 20260905014005 | 57 | 289 | 13.0 | 21.0 | 0.00 | 0.10 | 0.00 | 92 | 998.9 |
| 20260905013503 | 57 | 282 | 12.0 | 21.0 | 0.00 | 0.10 | 0.00 | 92 | 998.9 |
| 20260905013005 | 57 | 263 | 11.0 | 25.0 | 0.00 | 0.10 | 0.00 | 93 | 998.9 |
| 20260905012503 | 57 | 265 | 10.0 | 25.0 | 0.00 | 0.10 | 0.00 | 93 | 997.9 |
| 20260905012005 | 57 | 266 | 8.0 | 16.0 | 0.00 | 0.10 | 0.00 | 94 | 997.9 |
| 20260905011503 | 57 | 261 | 8.0 | 20.0 | 0.00 | 0.10 | 0.00 | 95 | 997.9 |
| 20260905011005 | 57 | 267 | 9.0 | 20.0 | 0.00 | 0.10 | 0.00 | 94 | 997.9 |
| 20260905010503 | 57 | 269 | 9.0 | 19.0 | 0.00 | 0.10 | 0.00 | 94 | 997.9 |
| 20260905010005 | 57 | 271 | 9.0 | 19.0 | 0.00 | 0.10 | 0.00 | 94 | 997.9 |
| 20260905005005 | 57 | 282 | 9.0 | 20.0 | 0.00 | 0.10 | 0.00 | 95 | 997.9 |
| 20260905004503 | 57 | 283 | 9.0 | 20.0 | 0.00 | 0.10 | 0.00 | 96 | 997.9 |
| 20260905004004 | 57 | 291 | 9.0 | 19.0 | 0.00 | 0.10 | 0.00 | 96 | 997.9 |
| 20260905003504 | 57 | 282 | 10.0 | 17.0 | 0.00 | 0.10 | 0.00 | 96 | 997.9 |
| 20260905003005 | 57 | 266 | 9.0 | 16.0 | 0.00 | 0.10 | 0.00 | 97 | 997.9 |
| 20260905002503 | 57 | 262 | 8.0 | 18.0 | 0.00 | 0.10 | 0.00 | 96 | 997.9 |
| 20260905002005 | 57 | 261 | 10.0 | 27.0 | 0.00 | 0.10 | 0.00 | 96 | 997.9 |
| 20260905001503 | 57 | 267 | 10.0 | 27.0 | 0.00 | 0.10 | 0.00 | 100 | 997.9 |
| 20260905001005 | 57 | 275 | 10.0 | 17.0 | 0.00 | 0.10 | 0.00 | 100 | 997.9 |
| 20260905000504 | 57 | 279 | 9.0 | 17.0 | 0.00 | 0.10 | 0.00 | 100 | 997.9 |
| 20260905000004 | 55 | 282 | 8.0 | 18.0 | 0.00 | 0.10 | 0.00 | 100 | 997.9 |
| 20260904235504 | 55 | 278 | 8.0 | 18.0 | 0.00 | 0.10 | 0.00 | 100 | 997.9 |
| 20260904235004 | 55 | 283 | 7.0 | 17.0 | 0.00 | 0.10 | 0.00 | 100 | 997.9 |
| 20260904234504 | 55 | 277 | 8.0 | 17.0 | 0.00 | 0.10 | 0.00 | 100 | 997.9 |
| 20260904233004 | 55 | 257 | 8.0 | 14.0 | 0.00 | 0.10 | 0.00 | 100 | 997.9 |
| 20260904232503 | 55 | 263 | 8.0 | 15.0 | 0.00 | 0.10 | 0.00 | 100 | 996.9 |
| 20260904232005 | 55 | 261 | 8.0 | 15.0 | 0.00 | 0.10 | 0.00 | 100 | 996.9 |
| 20260904231504 | 55 | 265 | 9.0 | 14.0 | 0.00 | 0.10 | 0.00 | 100 | 996.9 |
| 20260904231004 | 55 | 280 | 10.0 | 18.0 | 0.00 | 0.10 | 0.00 | 100 | 996.9 |
| 20260904230504 | 55 | 274 | 10.0 | 18.0 | 0.00 | 0.10 | 0.00 | 100 | 996.9 |
| 20260904230004 | 55 | 270 | 11.0 | 19.0 | 0.00 | 0.10 | 0.00 | 100 | 996.9 |
| 20260904225503 | 55 | 278 | 10.0 | 19.0 | 0.00 | 0.10 | 0.00 | 100 | 995.9 |
| 20260904225004 | 55 | 273 | 9.0 | 20.0 | 0.00 | 0.10 | 0.00 | 100 | 995.9 |
| 20260904224503 | 55 | 265 | 10.0 | 20.0 | 0.00 | 0.10 | 0.00 | 100 | 995.9 |
| 20260904224004 | 55 | 273 | 8.0 | 17.0 | 0.00 | 0.10 | 0.00 | 100 | 994.9 |
| 20260904223503 | 55 | 280 | 6.0 | 16.0 | 0.00 | 0.10 | 0.00 | 100 | 994.9 |
| 20260904223005 | 55 | 289 | 4.0 | 11.0 | 0.00 | 0.10 | 0.00 | 100 | 994.9 |
| 20260904222504 | 55 | 294 | 4.0 | 12.0 | 0.00 | 0.10 | 0.00 | 100 | 995.9 |
| 20260904222004 | 55 | 274 | 3.0 | 12.0 | 0.00 | 0.10 | 0.00 | 100 | 995.9 |
| 20260904221503 | 55 | 265 | 3.0 | 12.0 | 0.00 | 0.10 | 0.00 | 100 | 995.9 |
| 20260904220504 | 55 | 193 | 1.0 | 8.0 | 0.00 | 0.10 | 0.00 | 100 | 995.9 |
| 20260904215503 | 55 | 0 | 0.0 | 0.0 | 0.00 | 0.10 | 0.10 | 100 | 995.9 |
| 20260904215005 | 55 | 0 | 0.0 | 0.0 | 0.00 | 0.10 | 0.10 | 100 | 995.9 |
| 20260904214503 | 55 | 0 | 0.0 | 0.0 | 0.00 | 0.10 | 0.10 | 100 | 995.9 |
| 20260904214005 | 55 | 0 | 0.0 | 0.0 | 0.00 | 0.10 | 0.10 | 100 | 995.9 |
| 20260904213503 | 55 | 0 | 0.0 | 0.0 | 0.00 | 0.10 | 0.10 | 100 | 995.9 |
| 20260904212504 | 56 | 225 | 0.0 | 2.0 | 0.00 | 0.10 | 0.10 | 100 | 995.9 |
| 20260904212004 | 56 | 225 | 0.0 | 2.0 | 0.00 | 0.10 | 0.10 | 100 | 995.9 |
| 20260904211503 | 56 | 0 | 0.0 | 0.0 | 0.00 | 0.10 | 0.10 | 100 | 995.9 |
| 20260904211005 | 56 | 0 | 0.0 | 0.0 | 0.00 | 0.10 | 0.10 | 100 | 995.9 |
| 20260904210503 | 56 | 185 | 1.0 | 8.0 | 0.00 | 0.10 | 0.10 | 100 | 995.9 |
| 20260904210005 | 56 | 196 | 2.0 | 8.0 | 0.00 | 0.10 | 0.10 | 100 | 995.9 |
| 20260904205503 | 56 | 219 | 1.0 | 6.0 | 0.00 | 0.10 | 0.10 | 100 | 995.9 |
| 20260904205004 | 56 | 231 | 1.0 | 4.0 | 0.00 | 0.10 | 0.10 | 100 | 995.9 |
| 20260904204504 | 56 | 238 | 1.0 | 5.0 | 0.00 | 0.10 | 0.10 | 100 | 995.9 |
| 20260904203004 | 56 | 219 | 1.0 | 6.0 | 0.00 | 0.10 | 0.10 | 100 | 995.9 |
| 20260904202004 | 56 | 232 | 0.0 | 3.0 | 0.00 | 0.10 | 0.10 | 100 | 995.9 |
| 20260904201504 | 56 | 0 | 0.0 | 0.0 | 0.00 | 0.10 | 0.10 | 100 | 995.9 |
| 20260904200503 | 56 | 0 | 0.0 | 0.0 | 0.00 | 0.10 | 0.10 | 100 | 995.9 |
| 20260904200005 | 56 | 0 | 0.0 | 0.0 | 0.00 | 0.10 | 0.10 | 100 | 995.9 |
| 20260904195503 | 56 | 0 | 0.0 | 0.0 | 0.00 | 0.10 | 0.10 | 100 | 995.9 |
| 20260904195005 | 56 | 0 | 0.0 | 0.0 | 0.00 | 0.10 | 0.10 | 100 | 995.9 |
| 20260904194503 | 56 | 0 | 0.0 | 0.0 | 0.00 | 0.10 | 0.10 | 100 | 995.9 |
| 20260904194005 | 56 | 0 | 0.0 | 0.0 | 0.00 | 0.10 | 0.10 | 100 | 995.9 |
| 20260904193503 | 56 | 0 | 0.0 | 0.0 | 0.00 | 0.10 | 0.10 | 100 | 995.9 |
| 20260904193004 | 56 | 0 | 0.0 | 0.0 | 0.00 | 0.16 | 0.10 | 100 | 995.9 |
| 20260904192504 | 56 | 0 | 0.0 | 0.0 | 0.00 | 0.16 | 0.10 | 97 | 995.9 |
| 20260904191503 | 56 | 0 | 0.0 | 0.0 | 0.00 | 0.16 | 0.10 | 97 | 995.9 |
| 20260904191005 | 56 | 0 | 0.0 | 0.0 | 0.00 | 0.16 | 0.10 | 97 | 995.9 |
| 20260904190503 | 56 | 0 | 0.0 | 0.0 | 0.00 | 0.16 | 0.10 | 97 | 995.9 |
| 20260904190005 | 56 | 0 | 0.0 | 0.0 | 0.00 | 0.16 | 0.10 | 97 | 995.9 |
| 20260904185503 | 56 | 0 | 0.0 | 0.0 | 0.00 | 0.16 | 0.10 | 97 | 995.9 |
| 20260904185005 | 56 | 0 | 0.0 | 0.0 | 0.00 | 0.16 | 0.10 | 97 | 995.9 |
| 20260904184503 | 56 | 248 | 0.0 | 4.0 | 0.00 | 0.16 | 0.10 | 97 | 995.9 |
| 20260904184005 | 56 | 248 | 0.0 | 4.0 | 0.00 | 0.16 | 0.10 | 97 | 995.9 |
| 20260904183504 | 56 | 0 | 0.0 | 0.0 | 0.00 | 0.16 | 0.10 | 97 | 995.9 |
| 20260904183005 | 57 | 0 | 0.0 | 0.0 | 0.00 | 0.16 | 0.10 | 97 | 995.9 |
| 20260904182504 | 57 | 0 | 0.0 | 0.0 | 0.00 | 0.16 | 0.10 | 97 | 995.9 |
| 20260904182005 | 57 | 0 | 0.0 | 0.0 | 0.00 | 0.16 | 0.10 | 97 | 995.9 |
| 20260904181503 | 57 | 0 | 0.0 | 0.0 | 0.00 | 0.16 | 0.10 | 97 | 995.9 |
| 20260904181005 | 57 | 0 | 0.0 | 0.0 | 0.00 | 0.16 | 0.10 | 96 | 995.9 |
| 20260904180503 | 57 | 0 | 0.0 | 0.0 | 0.00 | 0.16 | 0.10 | 96 | 995.9 |
| 20260904180005 | 57 | 0 | 0.0 | 0.0 | 0.00 | 0.16 | 0.10 | 96 | 995.9 |
| 20260904175503 | 57 | 0 | 0.0 | 0.0 | 0.00 | 0.16 | 0.10 | 96 | 995.9 |
| 20260904175005 | 57 | 0 | 0.0 | 0.0 | 0.00 | 0.16 | 0.10 | 96 | 995.9 |
| 20260904174503 | 57 | 0 | 0.0 | 0.0 | 0.00 | 0.16 | 0.10 | 96 | 995.9 |
| 20260904174004 | 58 | 0 | 0.0 | 0.0 | 0.00 | 0.16 | 0.10 | 96 | 995.9 |
| 20260904173504 | 58 | 0 | 0.0 | 0.0 | 0.00 | 0.16 | 0.10 | 96 | 995.9 |
| 20260904173004 | 58 | 0 | 0.0 | 0.0 | 0.00 | 0.16 | 0.10 | 96 | 995.9 |
| 20260904172504 | 58 | 0 | 0.0 | 0.0 | 0.00 | 0.16 | 0.10 | 96 | 996.9 |
| 20260904172004 | 58 | 227 | 0.0 | 3.0 | 0.00 | 0.16 | 0.10 | 96 | 996.9 |
| 20260904171004 | 59 | 225 | 0.0 | 2.0 | 0.00 | 0.16 | 0.10 | 95 | 995.9 |
| 20260904170504 | 59 | 281 | 0.0 | 2.0 | 0.00 | 0.16 | 0.10 | 96 | 995.9 |
| 20260904170005 | 59 | 237 | 0.0 | 2.0 | 0.00 | 0.16 | 0.10 | 96 | 995.9 |
| 20260904165504 | 60 | 218 | 0.0 | 2.0 | 0.00 | 0.16 | 0.10 | 96 | 995.9 |
| 20260904165004 | 60 | 248 | 0.0 | 2.0 | 0.00 | 0.16 | 0.10 | 96 | 995.9 |
| 20260904164503 | 60 | 0 | 0.0 | 0.0 | 0.00 | 0.16 | 0.10 | 95 | 995.9 |
| 20260904164005 | 60 | 0 | 0.0 | 0.0 | 0.00 | 0.16 | 0.10 | 95 | 995.9 |
| 20260904163503 | 60 | 266 | 0.0 | 3.0 | 0.00 | 0.16 | 0.10 | 96 | 995.9 |
| 20260904163004 | 60 | 266 | 0.0 | 3.0 | 0.00 | 0.16 | 0.10 | 96 | 995.9 |
| 20260904162504 | 60 | 0 | 0.0 | 0.0 | 0.00 | 0.21 | 0.10 | 96 | 995.9 |
| 20260904161504 | 59 | 0 | 0.0 | 0.0 | 0.00 | 0.21 | 0.10 | 96 | 995.9 |
| 20260904161004 | 59 | 0 | 0.0 | 0.0 | 0.00 | 0.21 | 0.10 | 96 | 995.9 |
| 20260904160503 | 59 | 337 | 0.0 | 3.0 | 0.00 | 0.21 | 0.10 | 96 | 995.9 |
| 20260904155005 | 60 | 330 | 1.0 | 6.0 | 0.00 | 0.21 | 0.10 | 96 | 995.9 |
| 20260904154503 | 59 | 337 | 1.0 | 6.0 | 0.00 | 0.21 | 0.10 | 96 | 995.9 |
| 20260904153005 | 58 | 321 | 2.0 | 6.0 | 0.00 | 0.21 | 0.10 | 97 | 995.9 |
| 20260904152503 | 58 | 324 | 3.0 | 6.0 | 0.00 | 0.21 | 0.10 | 97 | 995.9 |
| 20260904152005 | 58 | 327 | 3.0 | 5.0 | 0.00 | 0.21 | 0.10 | 97 | 995.9 |
| 20260904151503 | 58 | 325 | 1.0 | 5.0 | 0.00 | 0.21 | 0.10 | 96 | 995.9 |
| 20260904151005 | 59 | 304 | 0.0 | 4.0 | 0.00 | 0.21 | 0.10 | 96 | 995.9 |
| 20260904150005 | 59 | 317 | 1.0 | 6.0 | 0.00 | 0.26 | 0.10 | 96 | 995.9 |
| 20260904144503 | 58 | 314 | 0.0 | 4.0 | 0.00 | 0.26 | 0.10 | 96 | 995.9 |
| 20260904144004 | 58 | 314 | 0.0 | 3.0 | 0.00 | 0.31 | 0.10 | 95 | 996.9 |
| 20260904143504 | 58 | 314 | 0.0 | 3.0 | 0.00 | 0.31 | 0.10 | 95 | 996.9 |
| 20260904143004 | 58 | 299 | 0.0 | 3.0 | 0.00 | 0.31 | 0.10 | 96 | 996.9 |
| 20260904142504 | 58 | 310 | 2.0 | 6.0 | 0.00 | 0.36 | 0.10 | 95 | 996.9 |
| 20260904142005 | 58 | 317 | 4.0 | 7.0 | 0.00 | 0.36 | 0.10 | 95 | 996.9 |
| 20260904141504 | 58 | 320 | 2.0 | 7.0 | 0.00 | 0.36 | 0.10 | 95 | 996.9 |
| 20260904141005 | 58 | 305 | 0.0 | 3.0 | 0.00 | 0.36 | 0.10 | 95 | 996.9 |
| 20260904140503 | 58 | 312 | 1.0 | 6.0 | 0.00 | 0.36 | 0.10 | 95 | 996.9 |
| 20260904135503 | 59 | 313 | 2.0 | 7.0 | 0.00 | 0.36 | 0.10 | 95 | 996.9 |
| 20260904135004 | 59 | 315 | 2.0 | 7.0 | 0.00 | 0.41 | 0.10 | 95 | 996.9 |
| 20260904134504 | 59 | 321 | 1.0 | 7.0 | 0.00 | 0.41 | 0.10 | 95 | 996.9 |
| 20260904134004 | 59 | 0 | 0.0 | 0.0 | 0.00 | 0.41 | 0.10 | 95 | 996.9 |
| 20260904133004 | 60 | 280 | 0.0 | 2.0 | 0.00 | 0.41 | 0.10 | 95 | 996.9 |
| 20260904132504 | 60 | 248 | 0.0 | 1.0 | 0.00 | 0.46 | 0.10 | 95 | 996.9 |
| 20260904132004 | 60 | 192 | 0.0 | 5.0 | 0.00 | 0.46 | 0.10 | 95 | 996.9 |
| 20260904131504 | 60 | 192 | 0.0 | 5.0 | 0.00 | 0.46 | 0.10 | 95 | 996.9 |
| 20260904130504 | 60 | 200 | 3.0 | 6.0 | 0.00 | 0.46 | 0.10 | 94 | 997.9 |
| 20260904130004 | 60 | 195 | 3.0 | 6.0 | 0.00 | 0.46 | 0.10 | 94 | 997.9 |
| 20260904125504 | 60 | 197 | 3.0 | 6.0 | 0.00 | 0.46 | 0.10 | 94 | 997.9 |
| 20260904125004 | 60 | 197 | 3.0 | 6.0 | 0.00 | 0.46 | 0.10 | 94 | 997.9 |
| 20260904124504 | 60 | 197 | 2.0 | 5.0 | 0.00 | 0.46 | 0.10 | 94 | 997.9 |
| 20260904124004 | 60 | 197 | 3.0 | 7.0 | 0.00 | 0.41 | 0.05 | 94 | 997.9 |
| 20260904123504 | 60 | 199 | 4.0 | 7.0 | 0.00 | 0.41 | 0.05 | 94 | 997.9 |
| 20260904123005 | 60 | 194 | 4.0 | 7.0 | 0.00 | 0.41 | 0.05 | 94 | 997.9 |
| 20260904122505 | 60 | 197 | 4.0 | 8.0 | 0.00 | 0.41 | 0.05 | 94 | 996.9 |
| 20260904121504 | 60 | 200 | 2.0 | 7.0 | 0.00 | 0.41 | 0.05 | 93 | 996.9 |
| 20260904121004 | 60 | 199 | 3.0 | 7.0 | 0.00 | 0.41 | 0.05 | 93 | 997.9 |
| 20260904120005 | 60 | 198 | 3.0 | 5.0 | 0.00 | 0.41 | 0.05 | 92 | 997.9 |
| 20260904115005 | 60 | 188 | 1.0 | 5.0 | 0.00 | 0.41 | 0.05 | 92 | 997.9 |
| 20260904114504 | 60 | 192 | 1.0 | 5.0 | 0.00 | 0.41 | 0.05 | 91 | 997.9 |
| 20260904114004 | 60 | 197 | 1.0 | 5.0 | 0.00 | 0.41 | 0.05 | 91 | 997.9 |
| 20260904113503 | 60 | 203 | 0.0 | 2.0 | 0.00 | 0.41 | 0.05 | 91 | 997.9 |
| 20260904113004 | 60 | 0 | 0.0 | 0.0 | 0.00 | 0.41 | 0.05 | 91 | 997.9 |
| 20260904112503 | 60 | 181 | 0.0 | 1.0 | 0.00 | 0.41 | 0.05 | 90 | 997.9 |
| 20260904112005 | 60 | 161 | 0.0 | 5.0 | 0.00 | 0.41 | 0.05 | 89 | 997.9 |
| 20260904111503 | 60 | 172 | 1.0 | 5.0 | 0.00 | 0.36 | 0.00 | 89 | 997.9 |
| 20260904111005 | 60 | 182 | 0.0 | 3.0 | 0.00 | 0.36 | 0.00 | 89 | 998.9 |
| 20260904110503 | 60 | 203 | 0.0 | 1.0 | 0.00 | 0.36 | 0.00 | 88 | 998.9 |
| 20260904110005 | 60 | 0 | 0.0 | 0.0 | 0.00 | 0.36 | 0.00 | 88 | 998.9 |
| 20260904105503 | 60 | 164 | 0.0 | 4.0 | 0.00 | 0.36 | 0.00 | 88 | 998.9 |